Regional Weather Roundup
Issued by NWS

Home | Current Version | Previous Version | Text Only | Print | Product List | Glossary Off
Versions: 1 2 3 4 5 6 7 8 9 10 11 12 13 14 15 16 17 18 19 20 21 22 23 24 25 26 27 28 29 30 31 32 33 34 35 36 37 38 39 40 41 42 43 44 45 46 47 48 49 50

817
ASUS45 KBOI 282010
RWRID

IDAHO REGIONAL WEATHER ROUNDUP
NATIONAL WEATHER SERVICE BOISE ID
200 PM MDT SAT MAY 28 2016

NOTE: "FAIR" INDICATES FEW OR NO CLOUDS BELOW 12000 FEET
WITH NO SIGNIFICANT WEATHER AND/OR OBSTRUCTIONS TO VISIBILITY

IDZ012-014-282100-
SOUTHWEST IDAHO


CITY           SKY/WX    TMP DP  RH WIND       PRES   REMARKS
BOISE          SUNNY     65  28  24 W12G17    30.07F
CALDWELL       SUNNY     65  31  28 N12G17    30.07F
MOUNTAIN HOME  MOSUNNY   69  37  30 NW12G17   30.06F
$$

IDZ016-017-282100-
SOUTHCENTRAL IDAHO


CITY           SKY/WX    TMP DP  RH WIND       PRES   REMARKS
BURLEY         SUNNY     63  32  31 W7        30.07F
JEROME         SUNNY     63  28  26 SW12G20   30.08F
TWIN FALLS     SUNNY     63  29  27 W10G17    30.09F
$$

IDZ019>023-282100-
SOUTHEAST IDAHO


CITY           SKY/WX    TMP DP  RH WIND       PRES   REMARKS
IDAHO FALLS    MOSUNNY   62  26  25 SW18G26   30.07S
POCATELLO      SUNNY     64  28  25 W14       30.09S
REXBURG        SUNNY     61  33  35 SW14G22   30.06F
$$

IDZ006-010-011-018-031-032-282100-
CENTRAL IDAHO MOUNTAINS


CITY           SKY/WX    TMP DP  RH WIND       PRES   REMARKS
MCCALL         MOSUNNY   54  31  41 VRB5      30.07S
HAILEY         SUNNY     61  28  29 SE9       30.07S
STANLEY          N/A     57  23  26 N10       30.08S
SALMON         PTSUNNY   61  36  39 N8        29.99F
CHALLIS        MOSUNNY   63  22  20 SE8       30.00F
$$

IDZ002-004-006-007-026-282100-
NORTHERN IDAHO


CITY           SKY/WX    TMP DP  RH WIND       PRES   REMARKS
LEWISTON       MOSUNNY   66  38  35 NE5       30.05F
LOWELL           N/A     68  31  25 S7        30.04F
COEUR D`ALENE  CLOUDY    55  36  47 SW6       30.05S
MULLAN PASS    CLOUDY    40  26  57 CALM      30.07S
$$




USA.gov is the U.S. government's official web portal to all federal, state and local government web resources and services.